7 * 24
多渠道服务支持
STARLINK-36297是美国太空探索技术公司(SpaceX)于2026年2月2日发射的星链(Starlink)系列卫星,隶属于SpaceX打造的全球卫星互联网星座项目。星链计划旨在构建近地轨道通信网络,为全球提供宽带互联网接入服务,已扩展至航空、航运、应急通信等多个领域。该卫星的发射进一步推进了星链星座的部署进程,助力SpaceX完善全球卫星通信网络布局。
美国
(US)
| 数据来源 | 国际轨道数据 |
| 星历时间: | 2026-03-14T06:00:02+0800 9小时前 查看轨道信息 |
| 半长轴: | 6760.265km |
| 偏心率: | 0.0001657 |
| 轨道倾角: | 97.284° |
| 近地点辐角 | 66.785° |
| 升交点赤经 | 107.127° |
| 平近点角 | 17.102° |
| 近地点: | 381.007km |
| 远地点: | 383.249km |
| 周期: | 92.195分钟 |
| 每日圈数: | 15.619143 |